Location: Mahannah Oil Field
(37.4664°N, 96.6003°W)
Time: 08:44:55
(UTC+00:00)

Vanguard 3 - Pass Details

Date: 28 January 2021
Orbit: 508 x 3261 km, 33.3° (Epoch: 24 February)

Event Time Altitude Azimuth Distance (km) Brightness Sun altitude
Exits shadow 12:02:59 24° 261° (W) 2,331 8.9 -17.9°
Maximum altitude 12:08:08 62° 189° (S) 1,776 8.8 -16.9°
Drops below altitude 10° 12:21:30 10° 114° (ESE) 5,152 12.6 -14.3°
Sets 12:26:29 0° 112° (ESE) 6,542 13.6 -13.4°
